Time,TemperatureF,DewpointF,PressureIn,WindDirection,WindDirectionDegrees,WindSpeedMPH,WindSpeedGustMPH,Humidity,HourlyPrecipIn,Conditions,Clouds,dailyrainin,SoftwareType,DateUTC
2013-09-07 00:00:00,69.4,47.0,30.22,SSE,155,12.9,20.3,45,0.00,,,0.00,WUHU216PEETBRO,2013-09-07 06:00:00,
2013-09-07 00:05:00,69.3,47.0,30.22,SSE,168,11.2,20.1,45,0.00,,,0.00,WUHU216PEETBRO,2013-09-07 06:05:00,
2013-09-07 00:10:00,69.0,46.7,30.23,South,173,10.0,20.3,45,0.00,,,0.00,WUHU216PEETBRO,2013-09-07 06:10:00,
2013-09-07 00:15:00,68.9,46.8,30.24,South,180,11.1,20.3,45,0.00,,,0.00,WUHU216PEETBRO,2013-09-07 06:15:00,
2013-09-07 00:20:00,68.8,46.8,30.24,South,174,9.3,18.5,45,0.00,,,0.00,WUHU216PEETBRO,2013-09-07 06:20:00,
2013-09-07 00:25:00,68.5,46.8,30.24,South,190,6.8,18.5,46,0.00,,,0.00,WUHU216PEETBRO,2013-09-07 06:25:00,
2013-09-07 00:30:00,68.4,47.1,30.23,South,187,5.9,13.2,47,0.00,,,0.00,WUHU216PEETBRO,2013-09-07 06:30:00,
2013-09-07 00:35:00,68.1,47.3,30.23,SSE,163,8.6,12.9,47,0.00,,,0.00,WUHU216PEETBRO,2013-09-07 06:35:00,
2013-09-07 00:40:00,67.9,47.6,30.23,SW,224,10.6,13.2,48,0.00,,,0.00,WUHU216PEETBRO,2013-09-07 06:40:00,
2013-09-07 00:45:00,67.8,47.5,30.23,SSE,160,1.8,13.2,48,0.00,,,0.00,WUHU216PEETBRO,2013-09-07 06:45:00,
2013-09-07 00:50:00,67.7,47.4,30.23,SSW,208,7.1,9.5,48,0.00,,,0.00,WUHU216PEETBRO,2013-09-07 06:50:00,
2013-09-07 00:55:00,67.4,47.4,30.23,South,184,6.3,9.4,49,0.00,,,0.00,WUHU216PEETBRO,2013-09-07 06:55:00,
2013-09-07 01:00:00,67.3,47.3,30.23,South,189,0.0,9.4,49,0.00,,,0.00,WUHU216PEETBRO,2013-09-07 07:00:00,
2013-09-07 01:05:00,66.9,47.1,30.23,South,176,6.3,6.8,49,0.00,,,0.00,WUHU216PEETBRO,2013-09-07 07:05:00,
2013-09-07 01:10:00,67.0,46.8,30.22,SSW,204,0.0,10.0,48,0.00,,,0.00,WUHU216PEETBRO,2013-09-07 07:10:00,
2013-09-07 01:15:00,67.0,47.1,30.23,South,174,1.0,10.0,49,0.00,,,0.00,WUHU216PEETBRO,2013-09-07 07:15:00,
2013-09-07 01:20:00,66.4,46.6,30.23,South,170,0.0,6.9,49,0.00,,,0.00,WUHU216PEETBRO,2013-09-07 07:20:00,
2013-09-07 01:25:00,66.0,46.5,30.23,South,170,0.0,0.0,49,0.00,,,0.00,WUHU216PEETBRO,2013-09-07 07:25:00,
2013-09-07 01:30:00,65.8,46.8,30.23,South,170,0.0,0.0,50,0.00,,,0.00,WUHU216PEETBRO,2013-09-07 07:30:00,
2013-09-07 01:35:00,65.4,46.6,30.23,South,170,0.0,0.0,51,0.00,,,0.00,WUHU216PEETBRO,2013-09-07 07:35:00,
2013-09-07 01:40:00,64.9,46.3,30.23,South,170,0.0,2.5,51,0.00,,,0.00,WUHU216PEETBRO,2013-09-07 07:40:00,
2013-09-07 01:45:00,64.7,46.1,30.23,South,170,0.0,2.5,51,0.00,,,0.00,WUHU216PEETBRO,2013-09-07 07:45:00,
2013-09-07 01:50:00,64.6,46.3,30.22,South,170,0.0,0.0,51,0.00,,,0.00,WUHU216PEETBRO,2013-09-07 07:50:00,
2013-09-07 01:55:00,64.5,46.8,30.23,South,170,0.0,0.0,52,0.00,,,0.00,WUHU216PEETBRO,2013-09-07 07:55:00,
2013-09-07 01:58:00,64.7,46.8,30.22,North,1,0.0,5.3,52,0.00,,,0.00,WUHU216PEETBRO,2013-09-07 07:58:00,
2013-09-07 01:59:00,64.7,46.8,30.22,North,1,0.0,4.7,52,0.00,,,0.00,WUHU216PEETBRO,2013-09-07 07:59:00,
2013-09-07 02:00:00,64.1,46.5,30.22,South,170,0.0,0.0,53,0.00,,,0.00,WUHU216PEETBRO,2013-09-07 08:00:00,
2013-09-07 02:01:00,64.8,46.9,30.22,North,1,0.0,0.0,52,0.00,,,0.00,WUHU216PEETBRO,2013-09-07 08:01:00,
2013-09-07 02:02:00,64.8,46.9,30.22,North,1,0.0,0.0,52,0.00,,,0.00,WUHU216PEETBRO,2013-09-07 08:02:00,
2013-09-07 02:03:00,64.9,46.9,30.22,North,1,0.0,0.0,52,0.00,,,0.00,WUHU216PEETBRO,2013-09-07 08:03:00,
2013-09-07 02:04:00,64.9,46.9,30.22,North,1,0.0,0.0,52,0.00,,,0.00,WUHU216PEETBRO,2013-09-07 08:04:00,
2013-09-07 02:05:00,64.6,46.8,30.22,North,1,0.0,5.3,52,0.00,,,0.00,WUHU216PEETBRO,2013-09-07 08:05:00,
2013-09-07 02:10:00,64.7,46.8,30.22,North,1,0.0,5.3,52,0.00,,,0.00,WUHU216PEETBRO,2013-09-07 08:10:00,
2013-09-07 02:15:00,64.9,47.0,30.22,North,1,0.0,0.0,52,0.00,,,0.00,WUHU216PEETBRO,2013-09-07 08:15:00,
2013-09-07 02:20:00,64.7,46.6,30.22,North,1,0.0,0.0,52,0.00,,,0.00,WUHU216PEETBRO,2013-09-07 08:20:00,
2013-09-07 02:25:00,65.0,46.8,30.22,North,1,0.0,2.7,52,0.00,,,0.00,WUHU216PEETBRO,2013-09-07 08:25:00,
2013-09-07 02:30:00,65.0,46.8,30.22,North,1,0.0,2.7,52,0.00,,,0.00,WUHU216PEETBRO,2013-09-07 08:30:00,
2013-09-07 02:35:00,64.2,46.6,30.22,North,1,0.0,0.0,53,0.00,,,0.00,WUHU216PEETBRO,2013-09-07 08:35:00,
2013-09-07 02:39:00,63.9,46.0,30.22,SSE,158,2.2,4.4,52,0.00,,,0.00,WUHU216PEETBRO,2013-09-07 08:39:00,
2013-09-07 02:45:00,63.3,46.6,30.22,SE,145,0.0,4.4,54,0.00,,,0.00,WUHU216PEETBRO,2013-09-07 08:45:00,
2013-09-07 02:49:00,62.7,46.6,30.22,NNE,22,0.0,5.8,56,0.00,,,0.00,WUHU216PEETBRO,2013-09-07 08:49:00,
2013-09-07 02:54:00,62.2,46.6,30.22,NNE,22,0.0,5.8,56,0.00,,,0.00,WUHU216PEETBRO,2013-09-07 08:54:00,
2013-09-07 02:59:00,62.1,46.9,30.23,North,11,0.2,2.3,57,0.00,,,0.00,WUHU216PEETBRO,2013-09-07 08:59:00,
2013-09-07 03:05:00,62.3,47.0,30.23,SE,144,1.2,6.3,57,0.00,,,0.00,WUHU216PEETBRO,2013-09-07 09:05:00,
2013-09-07 03:10:00,61.9,46.9,30.23,NE,53,0.0,6.3,58,0.00,,,0.00,WUHU216PEETBRO,2013-09-07 09:10:00,
2013-09-07 03:15:00,61.5,46.9,30.23,NW,320,0.8,3.5,58,0.00,,,0.00,WUHU216PEETBRO,2013-09-07 09:15:00,
2013-09-07 03:20:00,60.9,46.5,30.23,NW,317,0.0,3.5,59,0.00,,,0.00,WUHU216PEETBRO,2013-09-07 09:20:00,
2013-09-07 03:24:00,60.6,46.4,30.23,NNE,12,0.0,3.5,59,0.00,,,0.00,WUHU216PEETBRO,2013-09-07 09:24:00,
2013-09-07 03:29:00,60.3,46.3,30.24,NNE,12,0.0,3.5,60,0.00,,,0.00,WUHU216PEETBRO,2013-09-07 09:29:00,
2013-09-07 03:35:00,60.3,46.4,30.22,NNE,12,0.0,3.0,60,0.00,,,0.00,WUHU216PEETBRO,2013-09-07 09:35:00,
2013-09-07 03:40:00,60.6,46.1,30.23,SE,134,2.1,5.4,59,0.00,,,0.00,WUHU216PEETBRO,2013-09-07 09:40:00,
2013-09-07 03:45:00,60.3,45.6,30.23,SE,133,0.4,5.4,58,0.00,,,0.00,WUHU216PEETBRO,2013-09-07 09:45:00,
2013-09-07 03:50:00,60.3,46.5,30.23,NW,314,4.3,5.5,60,0.00,,,0.00,WUHU216PEETBRO,2013-09-07 09:50:00,
2013-09-07 03:55:00,59.8,45.9,30.24,WNW,293,0.0,5.5,60,0.00,,,0.00,WUHU216PEETBRO,2013-09-07 09:55:00,
2013-09-07 04:00:00,59.6,46.0,30.24,NW,313,1.6,5.0,60,0.00,,,0.00,WUHU216PEETBRO,2013-09-07 10:00:00,
2013-09-07 04:04:00,59.5,46.4,30.24,NW,315,2.7,5.0,62,0.00,,,0.00,WUHU216PEETBRO,2013-09-07 10:04:00,
2013-09-07 04:10:00,59.5,46.4,30.24,NNE,26,5.0,8.7,62,0.00,,,0.00,WUHU216PEETBRO,2013-09-07 10:10:00,
2013-09-07 04:15:00,59.5,46.5,30.24,North,9,5.0,8.8,62,0.00,,,0.00,WUHU216PEETBRO,2013-09-07 10:15:00,
2013-09-07 04:20:00,59.4,46.5,30.24,North,359,5.1,8.8,62,0.00,,,0.00,WUHU216PEETBRO,2013-09-07 10:20:00,
2013-09-07 04:24:00,59.4,46.6,30.25,North,11,5.3,8.9,62,0.00,,,0.00,WUHU216PEETBRO,2013-09-07 10:24:00,
2013-09-07 04:29:00,59.2,46.5,30.25,NNE,21,2.4,8.9,62,0.00,,,0.00,WUHU216PEETBRO,2013-09-07 10:29:00,
2013-09-07 04:34:00,59.1,46.5,30.25,NNE,14,0.6,5.0,63,0.00,,,0.00,WUHU216PEETBRO,2013-09-07 10:34:00,
2013-09-07 04:39:00,58.9,46.5,30.25,North,8,0.0,5.2,63,0.00,,,0.00,WUHU216PEETBRO,2013-09-07 10:39:00,
2013-09-07 04:44:00,58.7,46.3,30.24,NE,40,5.2,5.8,63,0.00,,,0.00,WUHU216PEETBRO,2013-09-07 10:44:00,
2013-09-07 04:49:00,58.9,46.5,30.25,NNW,344,0.4,7.4,63,0.00,,,0.00,WUHU216PEETBRO,2013-09-07 10:49:00,
2013-09-07 04:54:00,58.7,46.2,30.25,North,357,0.0,7.4,63,0.00,,,0.00,WUHU216PEETBRO,2013-09-07 10:54:00,
2013-09-07 04:59:00,58.4,46.0,30.25,North,357,0.0,3.4,63,0.00,,,0.00,WUHU216PEETBRO,2013-09-07 10:59:00,
2013-09-07 05:04:00,58.1,45.8,30.25,North,357,0.0,0.0,63,0.00,,,0.00,WUHU216PEETBRO,2013-09-07 11:04:00,
2013-09-07 05:09:00,58.0,45.7,30.25,North,357,0.0,0.0,63,0.00,,,0.00,WUHU216PEETBRO,2013-09-07 11:09:00,
2013-09-07 05:14:00,57.8,45.6,30.25,NE,45,3.1,4.9,63,0.00,,,0.00,WUHU216PEETBRO,2013-09-07 11:14:00,
2013-09-07 05:19:00,57.8,45.5,30.25,NE,38,0.0,4.9,63,0.00,,,0.00,WUHU216PEETBRO,2013-09-07 11:19:00,
2013-09-07 05:24:00,57.8,45.7,30.25,NE,38,0.0,4.3,64,0.00,,,0.00,WUHU216PEETBRO,2013-09-07 11:24:00,
2013-09-07 05:29:00,57.9,46.0,30.25,NE,38,0.0,0.0,64,0.00,,,0.00,WUHU216PEETBRO,2013-09-07 11:29:00,
2013-09-07 05:35:00,57.4,45.4,30.25,NE,38,0.0,0.0,64,0.00,,,0.00,WUHU216PEETBRO,2013-09-07 11:35:00,
2013-09-07 05:40:00,57.1,45.3,30.25,NE,38,0.0,0.0,64,0.00,,,0.00,WUHU216PEETBRO,2013-09-07 11:40:00,
2013-09-07 05:45:00,56.8,45.6,30.26,NE,38,0.0,0.0,66,0.00,,,0.00,WUHU216PEETBRO,2013-09-07 11:45:00,
2013-09-07 05:49:00,56.8,45.6,30.26,NE,38,0.0,0.0,66,0.00,,,0.00,WUHU216PEETBRO,2013-09-07 11:49:00,
2013-09-07 05:55:00,56.4,45.5,30.25,NE,38,0.0,0.0,66,0.00,,,0.00,WUHU216PEETBRO,2013-09-07 11:55:00,
2013-09-07 06:00:00,56.1,45.0,30.26,NE,38,0.0,0.0,66,0.00,,,0.00,WUHU216PEETBRO,2013-09-07 12:00:00,
2013-09-07 06:05:00,56.0,45.2,30.26,NE,38,0.0,0.0,67,0.00,,,0.00,WUHU216PEETBRO,2013-09-07 12:05:00,
2013-09-07 06:10:00,55.8,45.0,30.25,NE,38,0.0,0.0,67,0.00,,,0.00,WUHU216PEETBRO,2013-09-07 12:10:00,
2013-09-07 06:15:00,55.9,45.2,30.26,NE,38,0.0,0.0,67,0.00,,,0.00,WUHU216PEETBRO,2013-09-07 12:15:00,
2013-09-07 06:20:00,55.7,45.1,30.25,NE,38,0.0,0.0,67,0.00,,,0.00,WUHU216PEETBRO,2013-09-07 12:20:00,
2013-09-07 06:25:00,55.3,44.6,30.27,NW,320,3.1,3.1,67,0.00,,,0.00,WUHU216PEETBRO,2013-09-07 12:25:00,
2013-09-07 06:30:00,55.2,44.4,30.26,NW,320,0.0,3.1,67,0.00,,,0.00,WUHU216PEETBRO,2013-09-07 12:30:00,
2013-09-07 06:35:00,55.2,44.5,30.27,WNW,283,4.4,5.8,67,0.00,,,0.00,WUHU216PEETBRO,2013-09-07 12:35:00,
2013-09-07 06:40:00,55.0,44.3,30.27,West,263,0.9,5.9,67,0.00,,,0.00,WUHU216PEETBRO,2013-09-07 12:40:00,
2013-09-07 06:45:00,55.1,44.6,30.27,WSW,252,4.2,6.3,67,0.00,,,0.00,WUHU216PEETBRO,2013-09-07 12:45:00,
2013-09-07 06:50:00,55.0,44.1,30.27,WSW,253,2.5,6.3,66,0.00,,,0.00,WUHU216PEETBRO,2013-09-07 12:50:00,
2013-09-07 06:51:00,54.4,43.1,30.27,West,259,6.0,7.3,65,0.00,,,0.00,WUHU216PEETBRO,2013-09-07 12:51:00,
2013-09-07 06:52:00,54.5,43.1,30.28,WSW,252,5.7,7.3,65,0.00,,,0.00,WUHU216PEETBRO,2013-09-07 12:52:00,
2013-09-07 06:53:00,54.7,43.0,30.27,WSW,240,5.1,7.3,64,0.00,,,0.00,WUHU216PEETBRO,2013-09-07 12:53:00,
2013-09-07 06:55:00,54.5,43.0,30.27,WSW,238,5.0,6.6,65,0.00,,,0.00,WUHU216PEETBRO,2013-09-07 12:55:00,
2013-09-07 06:56:00,54.5,42.9,30.28,West,278,4.7,7.2,65,0.00,,,0.00,WUHU216PEETBRO,2013-09-07 12:56:00,
2013-09-07 06:57:00,54.5,42.9,30.28,West,272,3.7,7.2,65,0.00,,,0.00,WUHU216PEETBRO,2013-09-07 12:57:00,
2013-09-07 06:59:00,54.5,43.1,30.28,WNW,283,4.2,7.2,65,0.00,,,0.00,WUHU216PEETBRO,2013-09-07 12:59:00,
2013-09-07 07:00:00,54.5,43.1,30.27,WSW,242,4.6,7.3,65,0.00,,,0.00,WUHU216PEETBRO,2013-09-07 13:00:00,
2013-09-07 07:01:00,54.5,43.3,30.28,WNW,302,1.2,5.3,65,0.00,,,0.00,WUHU216PEETBRO,2013-09-07 13:01:00,
2013-09-07 07:02:00,54.5,43.4,30.28,WNW,302,0.0,5.3,66,0.00,,,0.00,WUHU216PEETBRO,2013-09-07 13:02:00,
2013-09-07 07:03:00,54.5,43.5,30.27,WNW,302,0.0,4.8,66,0.00,,,0.00,WUHU216PEETBRO,2013-09-07 13:03:00,
2013-09-07 07:05:00,54.5,43.7,30.28,WNW,302,0.0,4.8,66,0.00,,,0.00,WUHU216PEETBRO,2013-09-07 13:05:00,
2013-09-07 07:06:00,54.5,43.7,30.27,WNW,302,0.0,4.8,67,0.00,,,0.00,WUHU216PEETBRO,2013-09-07 13:06:00,
2013-09-07 07:07:00,54.6,43.8,30.27,WNW,302,0.0,4.3,67,0.00,,,0.00,WUHU216PEETBRO,2013-09-07 13:07:00,
2013-09-07 07:13:00,54.5,43.8,30.27,WNW,302,0.0,0.0,67,0.00,,,0.00,WUHU216PEETBRO,2013-09-07 13:13:00,
2013-09-07 07:15:00,54.5,43.4,30.28,WNW,302,0.0,4.8,66,0.00,,,0.00,WUHU216PEETBRO,2013-09-07 13:15:00,
2013-09-07 07:16:00,54.5,44.0,30.27,WNW,302,0.0,0.0,67,0.00,,,0.00,WUHU216PEETBRO,2013-09-07 13:16:00,
2013-09-07 07:17:00,54.5,44.0,30.28,WNW,302,0.0,0.0,67,0.00,,,0.00,WUHU216PEETBRO,2013-09-07 13:17:00,
2013-09-07 07:19:00,54.7,44.2,30.28,WNW,302,0.0,0.0,67,0.00,,,0.00,WUHU216PEETBRO,2013-09-07 13:19:00,
2013-09-07 07:20:00,54.8,44.1,30.28,WNW,302,0.0,0.0,67,0.00,,,0.00,WUHU216PEETBRO,2013-09-07 13:20:00,
2013-09-07 07:22:00,55.0,44.4,30.28,WNW,302,0.0,0.0,67,0.00,,,0.00,WUHU216PEETBRO,2013-09-07 13:22:00,
2013-09-07 07:24:00,55.0,44.3,30.28,WNW,302,0.0,0.0,67,0.00,,,0.00,WUHU216PEETBRO,2013-09-07 13:24:00,
2013-09-07 07:27:00,55.1,44.4,30.28,WNW,302,0.0,0.0,67,0.00,,,0.00,WUHU216PEETBRO,2013-09-07 13:27:00,
2013-09-07 07:32:00,55.1,44.6,30.28,WNW,302,0.0,0.0,67,0.00,,,0.00,WUHU216PEETBRO,2013-09-07 13:32:00,
2013-09-07 07:33:00,55.2,44.7,30.28,WNW,302,0.0,0.0,67,0.00,,,0.00,WUHU216PEETBRO,2013-09-07 13:33:00,
2013-09-07 07:35:00,55.4,44.8,30.28,WNW,302,0.0,0.0,67,0.00,,,0.00,WUHU216PEETBRO,2013-09-07 13:35:00,
2013-09-07 07:39:00,55.6,45.1,30.27,WNW,302,0.0,0.0,67,0.00,,,0.00,WUHU216PEETBRO,2013-09-07 13:39:00,
2013-09-07 07:41:00,55.7,45.2,30.27,WNW,302,0.0,0.0,67,0.00,,,0.00,WUHU216PEETBRO,2013-09-07 13:41:00,
2013-09-07 07:42:00,56.0,45.2,30.28,WNW,302,0.0,0.0,67,0.00,,,0.00,WUHU216PEETBRO,2013-09-07 13:42:00,
2013-09-07 07:46:00,56.8,45.5,30.28,WNW,302,0.0,0.0,66,0.00,,,0.00,WUHU216PEETBRO,2013-09-07 13:46:00,
2013-09-07 07:49:00,57.1,45.7,30.28,WNW,302,0.0,0.0,65,0.00,,,0.00,WUHU216PEETBRO,2013-09-07 13:49:00,
2013-09-07 07:51:00,57.3,45.8,30.27,WNW,302,0.0,0.0,65,0.00,,,0.00,WUHU216PEETBRO,2013-09-07 13:51:00,
2013-09-07 07:52:00,57.6,45.9,30.28,WNW,302,0.0,0.0,65,0.00,,,0.00,WUHU216PEETBRO,2013-09-07 13:52:00,
2013-09-07 07:54:00,58.1,46.0,30.27,WNW,302,0.0,0.0,64,0.00,,,0.00,WUHU216PEETBRO,2013-09-07 13:54:00,
2013-09-07 07:58:00,59.1,46.3,30.28,ENE,60,5.3,5.3,62,0.00,,,0.00,WUHU216PEETBRO,2013-09-07 13:58:00,
2013-09-07 07:59:00,59.5,46.3,30.28,ENE,57,4.3,5.3,61,0.00,,,0.00,WUHU216PEETBRO,2013-09-07 13:59:00,
2013-09-07 08:01:00,59.7,46.4,30.27,NE,53,1.6,5.3,61,0.00,,,0.00,WUHU216PEETBRO,2013-09-07 14:01:00,
2013-09-07 08:05:00,60.7,46.7,30.28,SE,145,0.0,5.3,60,0.00,,,0.00,WUHU216PEETBRO,2013-09-07 14:05:00,
2013-09-07 08:07:00,61.0,46.7,30.27,SE,145,0.0,5.3,59,0.00,,,0.00,WUHU216PEETBRO,2013-09-07 14:07:00,
2013-09-07 08:08:00,61.1,46.7,30.28,SE,145,0.0,3.2,59,0.00,,,0.00,WUHU216PEETBRO,2013-09-07 14:08:00,
2013-09-07 08:11:00,61.5,46.9,30.28,SE,139,0.0,0.0,58,0.00,,,0.00,WUHU216PEETBRO,2013-09-07 14:11:00,
2013-09-07 08:13:00,61.7,47.1,30.28,SE,139,0.0,0.0,59,0.00,,,0.00,WUHU216PEETBRO,2013-09-07 14:13:00,
2013-09-07 08:14:00,62.0,47.4,30.28,SE,136,0.0,0.0,58,0.00,,,0.00,WUHU216PEETBRO,2013-09-07 14:14:00,
2013-09-07 08:15:00,62.3,47.4,30.27,SE,136,0.0,0.0,58,0.00,,,0.00,WUHU216PEETBRO,2013-09-07 14:15:00,
2013-09-07 08:17:00,62.7,47.7,30.28,SE,136,0.0,0.0,58,0.00,,,0.00,WUHU216PEETBRO,2013-09-07 14:17:00,
2013-09-07 08:18:00,62.9,47.4,30.28,SE,136,0.0,0.0,57,0.00,,,0.00,WUHU216PEETBRO,2013-09-07 14:18:00,
2013-09-07 08:19:00,63.0,47.3,30.28,SE,136,0.0,0.0,56,0.00,,,0.00,WUHU216PEETBRO,2013-09-07 14:19:00,
2013-09-07 08:20:00,63.1,47.2,30.28,SE,136,0.0,0.0,56,0.00,,,0.00,WUHU216PEETBRO,2013-09-07 14:20:00,
2013-09-07 08:21:00,63.4,47.1,30.28,SE,136,0.0,0.0,55,0.00,,,0.00,WUHU216PEETBRO,2013-09-07 14:21:00,
2013-09-07 08:23:00,63.7,47.5,30.28,SE,136,0.0,0.0,55,0.00,,,0.00,WUHU216PEETBRO,2013-09-07 14:23:00,
2013-09-07 08:24:00,64.2,47.9,30.28,SE,136,0.0,0.0,55,0.00,,,0.00,WUHU216PEETBRO,2013-09-07 14:24:00,
2013-09-07 08:26:00,64.4,48.1,30.28,SE,136,0.0,0.0,55,0.00,,,0.00,WUHU216PEETBRO,2013-09-07 14:26:00,
2013-09-07 08:27:00,64.8,48.5,30.28,SE,136,0.0,0.0,55,0.00,,,0.00,WUHU216PEETBRO,2013-09-07 14:27:00,
2013-09-07 08:30:00,65.3,48.5,30.28,ENE,67,5.8,5.8,54,0.00,,,0.00,WUHU216PEETBRO,2013-09-07 14:30:00,
2013-09-07 08:31:00,65.8,49.2,30.28,ENE,63,5.0,5.8,55,0.00,,,0.00,WUHU216PEETBRO,2013-09-07 14:31:00,
2013-09-07 08:33:00,65.9,49.4,30.28,NE,50,2.2,5.8,55,0.00,,,0.00,WUHU216PEETBRO,2013-09-07 14:33:00,
2013-09-07 08:34:00,66.0,48.9,30.28,ENE,64,2.5,5.8,54,0.00,,,0.00,WUHU216PEETBRO,2013-09-07 14:34:00,
2013-09-07 08:36:00,66.0,48.9,30.28,ENE,64,1.3,5.8,54,0.00,,,0.00,WUHU216PEETBRO,2013-09-07 14:36:00,
2013-09-07 08:37:00,66.2,49.3,30.28,ENE,73,4.7,5.8,54,0.00,,,0.00,WUHU216PEETBRO,2013-09-07 14:37:00,
2013-09-07 08:39:00,66.3,49.4,30.28,ENE,59,4.6,5.8,54,0.00,,,0.00,WUHU216PEETBRO,2013-09-07 14:39:00,
2013-09-07 08:40:00,66.5,49.3,30.28,NE,43,2.2,4.8,54,0.00,,,0.00,WUHU216PEETBRO,2013-09-07 14:40:00,
2013-09-07 08:42:00,64.8,48.4,30.28,ENE,67,5.8,5.8,55,0.00,,,0.00,WUHU216PEETBRO,2013-09-07 14:42:00,
2013-09-07 08:44:00,67.1,49.6,30.28,ENE,64,3.2,5.7,53,0.00,,,0.00,WUHU216PEETBRO,2013-09-07 14:44:00,
2013-09-07 08:46:00,67.1,49.5,30.28,ENE,64,1.6,5.7,53,0.00,,,0.00,WUHU216PEETBRO,2013-09-07 14:46:00,
2013-09-07 08:49:00,67.2,49.4,30.28,ESE,105,0.0,5.7,53,0.00,,,0.00,WUHU216PEETBRO,2013-09-07 14:49:00,
2013-09-07 08:50:00,67.2,49.3,30.28,ESE,105,0.0,5.7,53,0.00,,,0.00,WUHU216PEETBRO,2013-09-07 14:50:00,
2013-09-07 08:52:00,67.9,50.2,30.28,ESE,105,0.0,5.7,53,0.00,,,0.00,WUHU216PEETBRO,2013-09-07 14:52:00,
2013-09-07 08:56:00,68.6,50.5,30.28,ESE,105,0.0,0.0,52,0.00,,,0.00,WUHU216PEETBRO,2013-09-07 14:56:00,
2013-09-07 08:57:00,68.9,50.4,30.28,ESE,105,0.0,0.0,52,0.00,,,0.00,WUHU216PEETBRO,2013-09-07 14:57:00,
2013-09-07 09:02:00,69.5,50.4,30.28,NNE,25,0.0,0.0,51,0.00,,,0.00,WUHU216PEETBRO,2013-09-07 15:02:00,
2013-09-07 09:03:00,69.7,50.7,30.28,NNE,25,0.0,0.0,51,0.00,,,0.00,WUHU216PEETBRO,2013-09-07 15:03:00,
2013-09-07 09:05:00,70.0,50.6,30.28,NNE,25,0.0,0.0,50,0.00,,,0.00,WUHU216PEETBRO,2013-09-07 15:05:00,
2013-09-07 09:08:00,70.0,50.2,30.28,NNE,25,0.0,0.0,49,0.00,,,0.00,WUHU216PEETBRO,2013-09-07 15:08:00,
2013-09-07 09:09:00,70.5,50.6,30.27,NNE,25,0.0,0.0,49,0.00,,,0.00,WUHU216PEETBRO,2013-09-07 15:09:00,
2013-09-07 09:11:00,71.1,50.7,30.27,NNE,25,0.0,0.0,49,0.00,,,0.00,WUHU216PEETBRO,2013-09-07 15:11:00,
2013-09-07 09:13:00,71.0,49.9,30.28,ESE,122,5.8,5.8,47,0.00,,,0.00,WUHU216PEETBRO,2013-09-07 15:13:00,
2013-09-07 09:14:00,70.7,49.1,30.27,SE,139,5.5,7.3,46,0.00,,,0.00,WUHU216PEETBRO,2013-09-07 15:14:00,
2013-09-07 09:15:00,70.6,49.3,30.27,SE,139,4.2,7.3,47,0.00,,,0.00,WUHU216PEETBRO,2013-09-07 15:15:00,
2013-09-07 09:19:00,71.5,49.3,30.28,SE,145,0.0,7.3,45,0.00,,,0.00,WUHU216PEETBRO,2013-09-07 15:19:00,
2013-09-07 09:21:00,71.8,49.8,30.28,SE,145,0.0,7.3,46,0.00,,,0.00,WUHU216PEETBRO,2013-09-07 15:21:00,
2013-09-07 09:24:00,72.2,48.8,30.28,East,97,5.7,5.7,44,0.00,,,0.00,WUHU216PEETBRO,2013-09-07 15:24:00,
2013-09-07 09:25:00,72.5,49.2,30.28,East,97,2.8,5.7,44,0.00,,,0.00,WUHU216PEETBRO,2013-09-07 15:25:00,
2013-09-07 09:26:00,73.0,49.7,30.28,ESE,117,0.0,5.7,44,0.00,,,0.00,WUHU216PEETBRO,2013-09-07 15:26:00,
2013-09-07 09:27:00,72.9,49.5,30.28,ESE,111,0.0,5.7,44,0.00,,,0.00,WUHU216PEETBRO,2013-09-07 15:27:00,
2013-09-07 09:31:00,74.2,48.8,30.28,SSE,165,5.7,5.7,41,0.00,,,0.00,WUHU216PEETBRO,2013-09-07 15:31:00,
2013-09-07 09:34:00,74.4,48.5,30.28,ESE,122,2.5,5.7,40,0.00,,,0.00,WUHU216PEETBRO,2013-09-07 15:34:00,
2013-09-07 09:37:00,74.3,48.4,30.28,East,93,0.0,5.7,40,0.00,,,0.00,WUHU216PEETBRO,2013-09-07 15:37:00,
2013-09-07 09:38:00,74.2,48.3,30.28,East,93,0.0,5.7,40,0.00,,,0.00,WUHU216PEETBRO,2013-09-07 15:38:00,
2013-09-07 09:44:00,74.7,48.1,30.28,ESE,121,0.0,0.0,39,0.00,,,0.00,WUHU216PEETBRO,2013-09-07 15:44:00,
2013-09-07 09:45:00,75.0,48.1,30.28,ESE,121,0.0,0.0,39,0.00,,,0.00,WUHU216PEETBRO,2013-09-07 15:45:00,
2013-09-07 09:47:00,75.2,48.5,30.28,ESE,121,0.0,0.0,39,0.00,,,0.00,WUHU216PEETBRO,2013-09-07 15:47:00,
2013-09-07 09:48:00,75.5,48.6,30.28,ESE,121,0.0,0.0,39,0.00,,,0.00,WUHU216PEETBRO,2013-09-07 15:48:00,
2013-09-07 09:49:00,75.5,47.1,30.28,SSE,153,6.3,6.3,37,0.00,,,0.00,WUHU216PEETBRO,2013-09-07 15:49:00,
2013-09-07 09:51:00,75.7,48.3,30.28,SE,136,4.9,6.3,38,0.00,,,0.00,WUHU216PEETBRO,2013-09-07 15:51:00,
2013-09-07 09:53:00,74.2,48.3,30.28,East,93,0.0,5.7,40,0.00,,,0.00,WUHU216PEETBRO,2013-09-07 15:53:00,
2013-09-07 09:54:00,76.0,47.9,30.28,ESE,121,5.5,6.3,37,0.00,,,0.00,WUHU216PEETBRO,2013-09-07 15:54:00,
2013-09-07 09:56:00,76.4,48.8,30.28,ESE,121,2.8,6.3,38,0.00,,,0.00,WUHU216PEETBRO,2013-09-07 15:56:00,
2013-09-07 09:57:00,76.6,48.5,30.28,ESE,119,3.2,6.3,37,0.00,,,0.00,WUHU216PEETBRO,2013-09-07 15:57:00,
2013-09-07 09:58:00,77.2,49.4,30.28,ESE,119,1.1,6.3,38,0.00,,,0.00,WUHU216PEETBRO,2013-09-07 15:58:00,
2013-09-07 10:00:00,77.3,48.4,30.28,SE,145,8.3,8.3,36,0.00,,,0.00,WUHU216PEETBRO,2013-09-07 16:00:00,
2013-09-07 10:01:00,76.9,47.9,30.28,SSE,159,7.6,8.3,36,0.00,,,0.00,WUHU216PEETBRO,2013-09-07 16:01:00,
2013-09-07 10:03:00,77.0,48.0,30.28,South,180,6.4,8.3,36,0.00,,,0.00,WUHU216PEETBRO,2013-09-07 16:03:00,
2013-09-07 10:06:00,77.2,48.8,30.28,SSE,156,0.0,8.3,37,0.00,,,0.00,WUHU216PEETBRO,2013-09-07 16:06:00,
2013-09-07 10:07:00,77.3,47.8,30.27,South,180,2.9,8.3,36,0.00,,,0.00,WUHU216PEETBRO,2013-09-07 16:07:00,
2013-09-07 10:09:00,77.4,48.6,30.28,SSE,153,7.0,8.3,37,0.00,,,0.00,WUHU216PEETBRO,2013-09-07 16:09:00,
2013-09-07 10:10:00,77.4,47.9,30.28,SE,146,4.5,7.0,36,0.00,,,0.00,WUHU216PEETBRO,2013-09-07 16:10:00,
2013-09-07 10:12:00,77.9,48.3,30.27,ESE,108,0.0,7.0,36,0.00,,,0.00,WUHU216PEETBRO,2013-09-07 16:12:00,
2013-09-07 10:13:00,78.3,49.0,30.28,ESE,108,0.0,7.0,36,0.00,,,0.00,WUHU216PEETBRO,2013-09-07 16:13:00,
2013-09-07 10:14:00,78.4,48.9,30.28,SSE,160,0.0,7.0,36,0.00,,,0.00,WUHU216PEETBRO,2013-09-07 16:14:00,
2013-09-07 10:15:00,78.5,48.8,30.28,SSE,160,0.0,7.0,36,0.00,,,0.00,WUHU216PEETBRO,2013-09-07 16:15:00,
2013-09-07 10:17:00,78.7,49.1,30.28,SW,217,5.6,7.0,36,0.00,,,0.00,WUHU216PEETBRO,2013-09-07 16:17:00,
2013-09-07 10:20:00,78.4,48.8,30.28,SSE,155,0.0,5.6,36,0.00,,,0.00,WUHU216PEETBRO,2013-09-07 16:20:00,
2013-09-07 10:25:00,78.9,48.4,30.28,SSE,148,5.2,5.6,35,0.00,,,0.00,WUHU216PEETBRO,2013-09-07 16:25:00,
2013-09-07 10:26:00,78.9,47.7,30.28,SSE,147,4.8,5.6,34,0.00,,,0.00,WUHU216PEETBRO,2013-09-07 16:26:00,
2013-09-07 10:28:00,79.1,48.5,30.28,SE,146,2.2,5.2,34,0.00,,,0.00,WUHU216PEETBRO,2013-09-07 16:28:00,
2013-09-07 10:34:00,80.4,49.6,30.27,West,265,6.2,6.2,34,0.00,,,0.00,WUHU216PEETBRO,2013-09-07 16:34:00,
2013-09-07 10:35:00,80.1,47.7,30.28,West,267,4.8,6.2,32,0.00,,,0.00,WUHU216PEETBRO,2013-09-07 16:35:00,
2013-09-07 10:36:00,80.4,49.2,30.28,West,267,3.2,6.2,34,0.00,,,0.00,WUHU216PEETBRO,2013-09-07 16:36:00,
2013-09-07 10:38:00,81.1,49.2,30.27,West,278,0.0,6.2,33,0.00,,,0.00,WUHU216PEETBRO,2013-09-07 16:38:00,
2013-09-07 10:40:00,81.4,49.2,30.28,SE,127,8.0,8.0,33,0.00,,,0.00,WUHU216PEETBRO,2013-09-07 16:40:00,
2013-09-07 10:42:00,81.4,50.3,30.28,SE,127,4.0,8.0,34,0.00,,,0.00,WUHU216PEETBRO,2013-09-07 16:42:00,
2013-09-07 10:44:00,81.4,48.6,30.28,SSW,199,0.0,8.0,32,0.00,,,0.00,WUHU216PEETBRO,2013-09-07 16:44:00,
2013-09-07 10:46:00,80.4,47.5,30.27,WSW,239,0.0,8.0,32,0.00,,,0.00,WUHU216PEETBRO,2013-09-07 16:46:00,
2013-09-07 10:47:00,80.4,47.5,30.28,WSW,239,0.0,8.0,32,0.00,,,0.00,WUHU216PEETBRO,2013-09-07 16:47:00,
2013-09-07 10:48:00,80.5,47.9,30.27,WSW,239,0.0,8.0,32,0.00,,,0.00,WUHU216PEETBRO,2013-09-07 16:48:00,
2013-09-07 10:50:00,80.7,48.4,30.27,WSW,239,0.0,8.0,33,0.00,,,0.00,WUHU216PEETBRO,2013-09-07 16:50:00,
2013-09-07 10:52:00,81.2,48.6,30.27,WSW,239,0.0,3.4,32,0.00,,,0.00,WUHU216PEETBRO,2013-09-07 16:52:00,
2013-09-07 10:54:00,81.4,48.9,30.27,NE,36,0.0,3.4,32,0.00,,,0.00,WUHU216PEETBRO,2013-09-07 16:54:00,
2013-09-07 10:58:00,82.1,49.2,30.26,NNE,16,2.2,2.2,32,0.00,,,0.00,WUHU216PEETBRO,2013-09-07 16:58:00,
2013-09-07 10:59:00,82.5,48.9,30.27,NNE,16,1.1,2.2,31,0.00,,,0.00,WUHU216PEETBRO,2013-09-07 16:59:00,
2013-09-07 11:00:00,82.4,49.0,30.27,NNE,16,0.7,2.2,32,0.00,,,0.00,WUHU216PEETBRO,2013-09-07 17:00:00,
2013-09-07 11:06:00,83.5,49.7,30.27,North,5,2.9,2.9,31,0.00,,,0.00,WUHU216PEETBRO,2013-09-07 17:06:00,
2013-09-07 11:10:00,82.5,47.6,30.27,North,351,4.3,4.3,30,0.00,,,0.00,WUHU216PEETBRO,2013-09-07 17:10:00,
2013-09-07 11:11:00,82.5,47.8,30.27,North,5,5.0,5.0,30,0.00,,,0.00,WUHU216PEETBRO,2013-09-07 17:11:00,
2013-09-07 11:13:00,82.5,47.1,30.27,WSW,255,5.8,5.8,29,0.00,,,0.00,WUHU216PEETBRO,2013-09-07 17:13:00,
2013-09-07 11:15:00,82.9,48.3,30.27,NNW,348,7.0,7.0,30,0.00,,,0.00,WUHU216PEETBRO,2013-09-07 17:15:00,
2013-09-07 11:17:00,82.5,47.2,30.27,NNW,348,3.5,7.0,29,0.00,,,0.00,WUHU216PEETBRO,2013-09-07 17:17:00,
2013-09-07 11:18:00,83.3,48.1,30.27,NNW,348,0.0,7.0,30,0.00,,,0.00,WUHU216PEETBRO,2013-09-07 17:18:00,
2013-09-07 11:20:00,83.1,47.2,30.27,NNE,18,4.7,7.0,29,0.00,,,0.00,WUHU216PEETBRO,2013-09-07 17:20:00,
2013-09-07 11:21:00,83.3,47.2,30.27,NNE,18,4.0,7.0,29,0.00,,,0.00,WUHU216PEETBRO,2013-09-07 17:21:00,
2013-09-07 11:23:00,83.4,47.2,30.27,NW,307,0.0,7.0,29,0.00,,,0.00,WUHU216PEETBRO,2013-09-07 17:23:00,
2013-09-07 11:24:00,83.8,48.2,30.27,NW,307,0.0,7.0,29,0.00,,,0.00,WUHU216PEETBRO,2013-09-07 17:24:00,
2013-09-07 11:25:00,84.0,47.6,30.27,NW,307,0.0,7.0,28,0.00,,,0.00,WUHU216PEETBRO,2013-09-07 17:25:00,
2013-09-07 11:27:00,82.5,47.1,30.27,WSW,255,5.8,5.8,29,0.00,,,0.00,WUHU216PEETBRO,2013-09-07 17:27:00,
2013-09-07 11:28:00,83.5,46.8,30.27,North,354,4.2,4.7,28,0.00,,,0.00,WUHU216PEETBRO,2013-09-07 17:28:00,
2013-09-07 11:31:00,84.8,48.1,30.27,North,351,0.0,4.2,28,0.00,,,0.00,WUHU216PEETBRO,2013-09-07 17:31:00,
2013-09-07 11:39:00,86.0,48.3,30.26,NE,46,4.9,4.9,27,0.00,,,0.00,WUHU216PEETBRO,2013-09-07 17:39:00,
2013-09-07 11:40:00,85.8,47.7,30.26,NE,46,2.5,4.9,27,0.00,,,0.00,WUHU216PEETBRO,2013-09-07 17:40:00,
2013-09-07 11:42:00,85.7,47.6,30.26,NE,40,0.0,4.9,27,0.00,,,0.00,WUHU216PEETBRO,2013-09-07 17:42:00,
2013-09-07 11:43:00,85.8,47.5,30.26,NE,40,0.0,4.9,27,0.00,,,0.00,WUHU216PEETBRO,2013-09-07 17:43:00,
2013-09-07 11:44:00,85.9,48.2,30.25,NE,40,0.0,4.9,27,0.00,,,0.00,WUHU216PEETBRO,2013-09-07 17:44:00,
2013-09-07 11:47:00,87.0,48.4,30.26,NE,36,0.0,4.9,27,0.00,,,0.00,WUHU216PEETBRO,2013-09-07 17:47:00,
2013-09-07 11:49:00,87.0,48.4,30.26,NE,36,0.0,0.0,27,0.00,,,0.00,WUHU216PEETBRO,2013-09-07 17:49:00,
2013-09-07 11:50:00,87.5,48.4,30.26,NE,36,0.0,0.0,26,0.00,,,0.00,WUHU216PEETBRO,2013-09-07 17:50:00,
2013-09-07 11:52:00,86.8,48.2,30.26,SSE,153,4.8,4.8,27,0.00,,,0.00,WUHU216PEETBRO,2013-09-07 17:52:00,
2013-09-07 11:56:00,85.6,47.1,30.25,South,170,8.3,8.3,26,0.00,,,0.00,WUHU216PEETBRO,2013-09-07 17:56:00,
2013-09-07 11:58:00,86.2,47.7,30.26,South,169,7.6,8.3,27,0.00,,,0.00,WUHU216PEETBRO,2013-09-07 17:58:00,
2013-09-07 11:59:00,85.6,46.5,30.25,South,175,5.5,8.3,26,0.00,,,0.00,WUHU216PEETBRO,2013-09-07 17:59:00,
2013-09-07 12:00:00,85.5,47.2,30.25,South,187,1.1,8.3,27,0.00,,,0.00,WUHU216PEETBRO,2013-09-07 18:00:00,
2013-09-07 12:02:00,85.9,47.8,30.25,SSW,193,0.0,8.3,27,0.00,,,0.00,WUHU216PEETBRO,2013-09-07 18:02:00,
2013-09-07 12:06:00,85.6,47.3,30.25,East,93,5.3,7.6,27,0.00,,,0.00,WUHU216PEETBRO,2013-09-07 18:06:00,
2013-09-07 12:07:00,86.8,48.2,30.26,SSE,153,4.8,4.8,27,0.00,,,0.00,WUHU216PEETBRO,2013-09-07 18:07:00,
2013-09-07 12:09:00,86.7,46.4,30.25,East,79,5.8,5.8,25,0.00,,,0.00,WUHU216PEETBRO,2013-09-07 18:09:00,
2013-09-07 12:12:00,87.6,47.3,30.25,ENE,74,5.5,5.8,25,0.00,,,0.00,WUHU216PEETBRO,2013-09-07 18:12:00,
2013-09-07 12:15:00,87.9,46.7,30.25,NE,42,0.0,5.8,24,0.00,,,0.00,WUHU216PEETBRO,2013-09-07 18:15:00,
2013-09-07 12:16:00,87.9,47.1,30.24,East,98,1.2,5.8,25,0.00,,,0.00,WUHU216PEETBRO,2013-09-07 18:16:00,
2013-09-07 12:18:00,87.7,47.0,30.24,ENE,77,0.0,5.8,25,0.00,,,0.00,WUHU216PEETBRO,2013-09-07 18:18:00,
2013-09-07 12:19:00,87.7,46.3,30.24,ESE,103,5.2,5.5,24,0.00,,,0.00,WUHU216PEETBRO,2013-09-07 18:19:00,
2013-09-07 12:20:00,87.9,46.8,30.24,NE,43,4.5,5.5,24,0.00,,,0.00,WUHU216PEETBRO,2013-09-07 18:20:00,
2013-09-07 12:21:00,88.2,46.5,30.24,ENE,75,3.2,5.5,24,0.00,,,0.00,WUHU216PEETBRO,2013-09-07 18:21:00,
2013-09-07 12:24:00,87.1,46.8,30.25,North,359,3.5,5.8,25,0.00,,,0.00,WUHU216PEETBRO,2013-09-07 18:24:00,
2013-09-07 12:28:00,88.4,45.7,30.24,NNE,14,3.4,5.2,23,0.00,,,0.00,WUHU216PEETBRO,2013-09-07 18:28:00,
2013-09-07 12:30:00,88.3,45.4,30.24,ENE,57,9.5,9.5,23,0.00,,,0.00,WUHU216PEETBRO,2013-09-07 18:30:00,
2013-09-07 12:32:00,88.4,43.9,30.23,NNE,29,3.4,9.5,21,0.00,,,0.00,WUHU216PEETBRO,2013-09-07 18:32:00,
2013-09-07 12:34:00,88.6,44.6,30.23,NE,56,5.3,9.5,22,0.00,,,0.00,WUHU216PEETBRO,2013-09-07 18:34:00,
2013-09-07 12:35:00,87.8,43.6,30.24,NE,56,4.0,9.5,22,0.00,,,0.00,WUHU216PEETBRO,2013-09-07 18:35:00,
2013-09-07 12:37:00,88.0,44.8,30.24,ESE,119,8.5,9.5,22,0.00,,,0.00,WUHU216PEETBRO,2013-09-07 18:37:00,
2013-09-07 12:38:00,88.2,44.8,30.24,ESE,116,5.8,9.5,22,0.00,,,0.00,WUHU216PEETBRO,2013-09-07 18:38:00,
2013-09-07 12:40:00,88.5,44.3,30.24,ENE,57,5.7,8.5,22,0.00,,,0.00,WUHU216PEETBRO,2013-09-07 18:40:00,
2013-09-07 12:44:00,89.2,44.8,30.22,NNE,23,0.0,8.5,22,0.00,,,0.00,WUHU216PEETBRO,2013-09-07 18:44:00,
2013-09-07 12:45:00,89.2,44.6,30.23,North,359,5.0,8.5,21,0.00,,,0.00,WUHU216PEETBRO,2013-09-07 18:45:00,
2013-09-07 12:47:00,89.6,44.2,30.23,East,84,9.1,9.1,21,0.00,,,0.00,WUHU216PEETBRO,2013-09-07 18:47:00,
2013-09-07 12:48:00,89.2,43.8,30.23,East,84,4.6,9.1,21,0.00,,,0.00,WUHU216PEETBRO,2013-09-07 18:48:00,
2013-09-07 12:50:00,89.2,43.9,30.23,ENE,59,7.1,9.1,21,0.00,,,0.00,WUHU216PEETBRO,2013-09-07 18:50:00,
2013-09-07 12:54:00,90.2,45.0,30.21,East,94,5.3,9.1,21,0.00,,,0.00,WUHU216PEETBRO,2013-09-07 18:54:00,
2013-09-07 12:56:00,91.0,45.4,30.23,East,84,7.8,9.1,21,0.00,,,0.00,WUHU216PEETBRO,2013-09-07 18:56:00,
2013-09-07 12:57:00,91.1,44.1,30.23,East,88,7.0,7.8,20,0.00,,,0.00,WUHU216PEETBRO,2013-09-07 18:57:00,
2013-09-07 13:00:00,87.8,42.4,30.23,East,95,9.4,9.4,21,0.00,,,0.00,WUHU216PEETBRO,2013-09-07 19:00:00,
2013-09-07 13:04:00,88.5,43.7,30.22,East,90,0.0,9.4,21,0.00,,,0.00,WUHU216PEETBRO,2013-09-07 19:04:00,
2013-09-07 13:05:00,88.8,43.6,30.22,East,90,0.0,9.4,21,0.00,,,0.00,WUHU216PEETBRO,2013-09-07 19:05:00,
2013-09-07 13:06:00,89.2,43.9,30.23,ENE,59,7.1,9.1,21,0.00,,,0.00,WUHU216PEETBRO,2013-09-07 19:06:00,
2013-09-07 13:07:00,89.8,43.5,30.22,ESE,119,0.0,9.4,20,0.00,,,0.00,WUHU216PEETBRO,2013-09-07 19:07:00,
2013-09-07 13:08:00,89.7,43.2,30.22,South,179,5.2,9.4,20,0.00,,,0.00,WUHU216PEETBRO,2013-09-07 19:08:00,
2013-09-07 13:12:00,90.2,44.5,30.22,East,88,2.9,5.2,21,0.00,,,0.00,WUHU216PEETBRO,2013-09-07 19:12:00,
2013-09-07 13:15:00,89.8,44.1,30.21,East,90,8.4,8.4,21,0.00,,,0.00,WUHU216PEETBRO,2013-09-07 19:15:00,
2013-09-07 13:20:00,90.3,43.4,30.22,NNE,14,6.0,8.4,20,0.00,,,0.00,WUHU216PEETBRO,2013-09-07 19:20:00,
2013-09-07 13:22:00,87.8,41.7,30.22,ENE,69,5.6,8.4,20,0.00,,,0.00,WUHU216PEETBRO,2013-09-07 19:22:00,
2013-09-07 13:23:00,87.3,41.4,30.22,ENE,69,2.8,8.4,20,0.00,,,0.00,WUHU216PEETBRO,2013-09-07 19:23:00,
2013-09-07 13:25:00,87.2,41.6,30.21,NE,42,0.0,6.0,20,0.00,,,0.00,WUHU216PEETBRO,2013-09-07 19:25:00,
2013-09-07 13:27:00,86.2,40.4,30.21,North,11,0.0,6.0,20,0.00,,,0.00,WUHU216PEETBRO,2013-09-07 19:27:00,
2013-09-07 13:29:00,85.5,40.5,30.21,WNW,293,5.3,6.0,21,0.00,,,0.00,WUHU216PEETBRO,2013-09-07 19:29:00,
2013-09-07 13:30:00,85.4,41.2,30.21,NW,304,2.9,5.6,21,0.00,,,0.00,WUHU216PEETBRO,2013-09-07 19:30:00,
2013-09-07 13:32:00,89.8,44.1,30.21,East,90,8.4,8.4,21,0.00,,,0.00,WUHU216PEETBRO,2013-09-07 19:32:00,
2013-09-07 13:33:00,85.4,41.8,30.21,NW,321,0.0,5.3,22,0.00,,,0.00,WUHU216PEETBRO,2013-09-07 19:33:00,
2013-09-07 13:35:00,84.6,41.1,30.20,NW,321,0.0,5.3,22,0.00,,,0.00,WUHU216PEETBRO,2013-09-07 19:35:00,
2013-09-07 13:36:00,84.3,40.8,30.21,NW,321,0.0,5.3,22,0.00,,,0.00,WUHU216PEETBRO,2013-09-07 19:36:00,
2013-09-07 13:39:00,83.7,40.8,30.21,ENE,71,8.8,8.8,22,0.00,,,0.00,WUHU216PEETBRO,2013-09-07 19:39:00,
2013-09-07 13:41:00,83.9,40.5,30.21,East,79,5.4,8.8,22,0.00,,,0.00,WUHU216PEETBRO,2013-09-07 19:41:00,
2013-09-07 13:42:00,84.1,41.3,30.21,NNE,33,4.4,8.8,22,0.00,,,0.00,WUHU216PEETBRO,2013-09-07 19:42:00,
2013-09-07 13:43:00,84.2,41.4,30.21,NNE,33,1.5,8.8,22,0.00,,,0.00,WUHU216PEETBRO,2013-09-07 19:43:00,
2013-09-07 13:44:00,84.5,41.9,30.21,NNE,33,1.5,8.8,22,0.00,,,0.00,WUHU216PEETBRO,2013-09-07 19:44:00,
2013-09-07 13:45:00,84.6,41.5,30.21,North,359,0.0,8.8,22,0.00,,,0.00,WUHU216PEETBRO,2013-09-07 19:45:00,
2013-09-07 13:49:00,86.2,43.1,30.21,North,357,0.0,8.8,22,0.00,,,0.00,WUHU216PEETBRO,2013-09-07 19:49:00,
2013-09-07 13:50:00,85.7,42.1,30.21,ENE,77,6.8,7.1,22,0.00,,,0.00,WUHU216PEETBRO,2013-09-07 19:50:00,
2013-09-07 13:51:00,85.6,41.9,30.20,ENE,67,6.0,7.1,22,0.00,,,0.00,WUHU216PEETBRO,2013-09-07 19:51:00,
2013-09-07 13:52:00,85.5,41.7,30.21,ENE,67,3.0,7.1,22,0.00,,,0.00,WUHU216PEETBRO,2013-09-07 19:52:00,
2013-09-07 13:55:00,84.7,41.1,30.21,East,90,0.0,7.1,22,0.00,,,0.00,WUHU216PEETBRO,2013-09-07 19:55:00,
2013-09-07 13:59:00,84.2,40.4,30.21,East,84,10.9,10.9,21,0.00,,,0.00,WUHU216PEETBRO,2013-09-07 19:59:00,
2013-09-07 14:03:00,83.4,40.3,30.21,NE,43,2.8,10.9,22,0.00,,,0.00,WUHU216PEETBRO,2013-09-07 20:03:00,
2013-09-07 14:04:00,83.4,39.8,30.21,NE,43,1.4,10.9,21,0.00,,,0.00,WUHU216PEETBRO,2013-09-07 20:04:00,
2013-09-07 14:08:00,82.9,39.6,30.20,ENE,64,0.0,10.9,22,0.00,,,0.00,WUHU216PEETBRO,2013-09-07 20:08:00,
2013-09-07 14:10:00,82.9,39.9,30.20,SW,225,3.0,3.0,22,0.00,,,0.00,WUHU216PEETBRO,2013-09-07 20:10:00,
2013-09-07 14:11:00,82.5,40.7,30.21,SW,225,1.5,3.0,23,0.00,,,0.00,WUHU216PEETBRO,2013-09-07 20:11:00,
2013-09-07 14:12:00,82.4,41.9,30.21,SW,225,1.0,3.0,24,0.00,,,0.00,WUHU216PEETBRO,2013-09-07 20:12:00,
2013-09-07 14:13:00,82.5,43.4,30.19,SW,225,0.0,3.0,25,0.00,,,0.00,WUHU216PEETBRO,2013-09-07 20:13:00,
2013-09-07 14:14:00,81.9,44.4,30.19,SW,225,0.0,3.0,27,0.00,,,0.00,WUHU216PEETBRO,2013-09-07 20:14:00,
2013-09-07 14:15:00,81.6,47.7,30.20,SW,225,0.0,3.0,31,0.00,,,0.00,WUHU216PEETBRO,2013-09-07 20:15:00,
2013-09-07 14:18:00,80.8,47.4,30.20,SW,225,0.0,3.0,31,0.00,,,0.00,WUHU216PEETBRO,2013-09-07 20:18:00,
2013-09-07 14:20:00,80.4,47.4,30.20,SW,225,0.0,0.0,32,0.00,,,0.00,WUHU216PEETBRO,2013-09-07 20:20:00,
2013-09-07 14:21:00,80.4,49.0,30.20,SW,225,0.0,0.0,34,0.00,,,0.00,WUHU216PEETBRO,2013-09-07 20:21:00,
2013-09-07 14:22:00,80.4,49.1,30.20,SW,225,0.0,0.0,34,0.00,,,0.00,WUHU216PEETBRO,2013-09-07 20:22:00,
2013-09-07 14:24:00,80.0,46.6,30.21,SW,225,0.0,0.0,31,0.00,,,0.00,WUHU216PEETBRO,2013-09-07 20:24:00,
2013-09-07 14:29:00,78.3,53.4,30.21,SSE,162,5.7,5.7,42,0.00,,,0.00,WUHU216PEETBRO,2013-09-07 20:29:00,
2013-09-07 14:31:00,72.8,48.4,30.22,SE,145,17.5,17.5,42,0.00,,,0.00,WUHU216PEETBRO,2013-09-07 20:31:00,
2013-09-07 14:33:00,71.8,46.7,30.21,SE,133,10.9,17.5,41,0.02,,,0.02,WUHU216PEETBRO,2013-09-07 20:33:00,
2013-09-07 14:34:00,71.5,48.4,30.21,SE,138,15.2,17.5,44,0.02,,,0.02,WUHU216PEETBRO,2013-09-07 20:34:00,
2013-09-07 14:35:00,71.6,48.3,30.21,ESE,122,10.9,17.5,44,0.02,,,0.02,WUHU216PEETBRO,2013-09-07 20:35:00,
2013-09-07 14:38:00,70.7,53.1,30.22,SSE,155,12.1,17.5,54,0.02,,,0.02,WUHU216PEETBRO,2013-09-07 20:38:00,
2013-09-07 14:39:00,80.0,46.6,30.21,SW,225,0.0,0.0,31,0.00,,,0.00,WUHU216PEETBRO,2013-09-07 20:39:00,
2013-09-07 14:40:00,69.4,52.0,30.22,SSE,156,13.7,17.5,54,0.02,,,0.02,WUHU216PEETBRO,2013-09-07 20:40:00,
2013-09-07 14:42:00,69.4,49.9,30.22,SE,139,17.0,17.0,50,0.02,,,0.02,WUHU216PEETBRO,2013-09-07 20:42:00,
2013-09-07 14:43:00,69.2,50.3,30.22,SE,136,20.1,20.1,51,0.02,,,0.02,WUHU216PEETBRO,2013-09-07 20:43:00,
2013-09-07 14:47:00,68.4,48.9,30.21,SE,125,9.4,20.1,50,0.02,,,0.02,WUHU216PEETBRO,2013-09-07 20:47:00,
2013-09-07 14:49:00,67.3,49.0,30.22,SSE,148,36.2,36.2,52,0.03,,,0.03,WUHU216PEETBRO,2013-09-07 20:49:00,
2013-09-07 14:50:00,67.1,49.0,30.22,SE,145,26.8,36.2,52,0.03,,,0.03,WUHU216PEETBRO,2013-09-07 20:50:00,
2013-09-07 14:51:00,67.0,48.7,30.21,SE,137,26.5,36.2,52,0.03,,,0.03,WUHU216PEETBRO,2013-09-07 20:51:00,
2013-09-07 14:52:00,66.9,49.8,30.21,SE,132,24.2,36.2,54,0.03,,,0.03,WUHU216PEETBRO,2013-09-07 20:52:00,
2013-09-07 14:54:00,66.7,49.8,30.20,SE,141,13.7,36.2,54,0.03,,,0.03,WUHU216PEETBRO,2013-09-07 20:54:00,
2013-09-07 14:57:00,66.9,51.5,30.21,ESE,115,13.0,36.2,57,0.03,,,0.03,WUHU216PEETBRO,2013-09-07 20:57:00,
2013-09-07 14:58:00,67.0,51.3,30.21,ESE,121,13.4,36.2,57,0.03,,,0.03,WUHU216PEETBRO,2013-09-07 20:58:00,
2013-09-07 14:59:00,67.2,51.8,30.22,SE,127,13.7,36.2,57,0.03,,,0.03,WUHU216PEETBRO,2013-09-07 20:59:00,
2013-09-07 15:00:00,67.4,51.2,30.21,SE,127,13.8,32.4,56,0.03,,,0.03,WUHU216PEETBRO,2013-09-07 21:00:00,
2013-09-07 15:01:00,67.9,52.1,30.21,SE,130,13.7,23.2,57,0.03,,,0.03,WUHU216PEETBRO,2013-09-07 21:01:00,
2013-09-07 15:02:00,68.1,52.5,30.21,SE,131,13.9,23.5,57,0.03,,,0.03,WUHU216PEETBRO,2013-09-07 21:02:00,
2013-09-07 15:03:00,68.7,52.4,30.21,ESE,117,13.4,28.5,56,0.03,,,0.03,WUHU216PEETBRO,2013-09-07 21:03:00,
2013-09-07 15:04:00,69.5,53.6,30.21,ESE,121,24.0,33.9,57,0.03,,,0.03,WUHU216PEETBRO,2013-09-07 21:04:00,
2013-09-07 15:05:00,70.0,54.8,30.21,ENE,57,18.0,33.9,58,0.03,,,0.03,WUHU216PEETBRO,2013-09-07 21:05:00,
2013-09-07 15:06:00,69.9,54.8,30.21,ESE,121,15.3,33.9,58,0.03,,,0.03,WUHU216PEETBRO,2013-09-07 21:06:00,
2013-09-07 15:07:00,69.9,53.9,30.21,ENE,74,15.8,33.9,57,0.03,,,0.03,WUHU216PEETBRO,2013-09-07 21:07:00,
2013-09-07 15:08:00,69.9,54.2,30.21,East,94,20.3,36.0,57,0.03,,,0.03,WUHU216PEETBRO,2013-09-07 21:08:00,
2013-09-07 15:09:00,69.8,54.5,30.20,East,94,19.5,36.0,58,0.03,,,0.03,WUHU216PEETBRO,2013-09-07 21:09:00,
2013-09-07 15:10:00,69.7,54.9,30.21,ESE,110,14.2,36.0,59,0.03,,,0.03,WUHU216PEETBRO,2013-09-07 21:10:00,
2013-09-07 15:11:00,70.9,56.0,30.21,ESE,122,12.4,36.0,59,0.03,,,0.03,WUHU216PEETBRO,2013-09-07 21:11:00,
2013-09-07 15:13:00,67.9,52.1,30.21,ESE,108,15.5,23.2,57,0.03,,,0.03,WUHU216PEETBRO,2013-09-07 21:13:00,
2013-09-07 15:15:00,74.1,59.5,30.21,ESE,110,13.7,36.0,60,0.03,,,0.03,WUHU216PEETBRO,2013-09-07 21:15:00,
2013-09-07 15:16:00,74.4,57.7,30.21,ESE,110,22.6,36.0,56,0.03,,,0.03,WUHU216PEETBRO,2013-09-07 21:16:00,
2013-09-07 15:18:00,69.9,54.8,30.21,ESE,121,14.2,33.9,58,0.03,,,0.03,WUHU216PEETBRO,2013-09-07 21:18:00,
2013-09-07 15:23:00,71.1,56.2,30.21,ESE,114,12.4,36.0,59,0.03,,,0.03,WUHU216PEETBRO,2013-09-07 21:23:00,
2013-09-07 15:28:00,74.6,57.1,30.20,ESE,113,13.9,36.0,54,0.03,,,0.03,WUHU216PEETBRO,2013-09-07 21:28:00,
2013-09-07 15:33:00,77.0,58.1,30.21,ESE,105,10.3,25.2,52,0.03,,,0.03,WUHU216PEETBRO,2013-09-07 21:33:00,
2013-09-07 15:38:00,78.1,56.6,30.21,SE,135,9.0,21.6,48,0.03,,,0.03,WUHU216PEETBRO,2013-09-07 21:38:00,
2013-09-07 15:43:00,79.9,57.1,30.20,ESE,105,10.4,21.6,46,0.01,,,0.03,WUHU216PEETBRO,2013-09-07 21:43:00,
2013-09-07 15:48:00,80.6,54.7,30.19,East,90,8.7,19.6,41,0.01,,,0.03,WUHU216PEETBRO,2013-09-07 21:48:00,
2013-09-07 15:53:00,81.3,55.0,30.19,East,90,9.2,17.5,41,0.01,,,0.03,WUHU216PEETBRO,2013-09-07 21:53:00,
2013-09-07 15:58:00,81.7,57.1,30.19,ENE,77,9.0,16.5,43,0.01,,,0.03,WUHU216PEETBRO,2013-09-07 21:58:00,
2013-09-07 16:03:00,82.5,56.0,30.19,ENE,74,11.0,16.5,40,0.00,,,0.03,WUHU216PEETBRO,2013-09-07 22:03:00,
2013-09-07 16:08:00,82.0,55.7,30.19,ESE,119,11.9,16.4,41,0.00,,,0.03,WUHU216PEETBRO,2013-09-07 22:08:00,
2013-09-07 16:13:00,82.2,56.4,30.20,ENE,66,8.6,16.4,41,0.00,,,0.03,WUHU216PEETBRO,2013-09-07 22:13:00,
2013-09-07 16:18:00,81.4,54.8,30.20,ENE,70,11.9,16.4,40,0.00,,,0.03,WUHU216PEETBRO,2013-09-07 22:18:00,
2013-09-07 16:23:00,81.3,56.6,30.20,East,84,7.9,17.0,43,0.00,,,0.03,WUHU216PEETBRO,2013-09-07 22:23:00,
2013-09-07 16:28:00,80.3,54.7,30.20,NE,54,8.6,17.0,41,0.00,,,0.03,WUHU216PEETBRO,2013-09-07 22:28:00,
2013-09-07 16:33:00,80.3,54.3,30.20,NE,53,10.6,18.0,41,0.00,,,0.03,WUHU216PEETBRO,2013-09-07 22:33:00,
2013-09-07 16:38:00,80.5,54.9,30.19,ENE,57,11.5,18.2,42,0.00,,,0.03,WUHU216PEETBRO,2013-09-07 22:38:00,
2013-09-07 16:43:00,80.4,52.8,30.19,NE,54,10.4,18.7,39,0.00,,,0.03,WUHU216PEETBRO,2013-09-07 22:43:00,
2013-09-07 16:48:00,80.6,53.8,30.19,ENE,58,10.6,18.7,40,0.00,,,0.03,WUHU216PEETBRO,2013-09-07 22:48:00,
2013-09-07 16:53:00,80.5,52.9,30.19,NE,47,10.4,18.2,39,0.00,,,0.03,WUHU216PEETBRO,2013-09-07 22:53:00,
2013-09-07 16:58:00,80.5,53.5,30.19,ENE,60,8.7,18.8,40,0.00,,,0.03,WUHU216PEETBRO,2013-09-07 22:58:00,
2013-09-07 17:03:00,80.8,53.1,30.19,East,84,9.7,18.8,39,0.00,,,0.03,WUHU216PEETBRO,2013-09-07 23:03:00,
2013-09-07 17:08:00,78.9,51.0,30.19,NE,38,11.7,20.4,38,0.00,,,0.03,WUHU216PEETBRO,2013-09-07 23:08:00,
2013-09-07 17:13:00,79.5,52.8,30.19,ENE,62,8.4,20.4,40,0.00,,,0.03,WUHU216PEETBRO,2013-09-07 23:13:00,
2013-09-07 17:18:00,80.2,52.8,30.19,ENE,59,10.7,18.6,39,0.00,,,0.03,WUHU216PEETBRO,2013-09-07 23:18:00,
2013-09-07 17:23:00,79.4,51.3,30.19,ENE,69,14.0,15.9,38,0.00,,,0.03,WUHU216PEETBRO,2013-09-07 23:23:00,
2013-09-07 17:28:00,79.4,51.9,30.18,NE,56,9.8,18.1,39,0.00,,,0.03,WUHU216PEETBRO,2013-09-07 23:28:00,
2013-09-07 17:33:00,78.3,50.3,30.17,ENE,77,14.3,18.1,38,0.00,,,0.03,WUHU216PEETBRO,2013-09-07 23:33:00,
2013-09-07 17:38:00,77.2,51.0,30.18,ENE,73,9.5,22.7,40,0.00,,,0.03,WUHU216PEETBRO,2013-09-07 23:38:00,
2013-09-07 17:43:00,77.0,49.3,30.17,ENE,64,13.3,22.7,38,0.00,,,0.03,WUHU216PEETBRO,2013-09-07 23:43:00,
2013-09-07 17:48:00,76.7,48.8,30.17,East,81,12.1,19.4,38,0.00,,,0.03,WUHU216PEETBRO,2013-09-07 23:48:00,
2013-09-07 17:53:00,76.6,47.6,30.17,ENE,64,11.0,26.8,36,0.00,,,0.03,WUHU216PEETBRO,2013-09-07 23:53:00,
2013-09-07 17:58:00,76.6,48.8,30.17,ENE,72,10.2,26.8,38,0.00,,,0.03,WUHU216PEETBRO,2013-09-07 23:58:00,
2013-09-07 18:03:00,76.3,49.1,30.17,East,86,10.1,15.7,39,0.00,,,0.03,WUHU216PEETBRO,2013-09-08 00:03:00,
2013-09-07 18:08:00,76.6,48.6,30.17,East,96,7.2,16.5,38,0.00,,,0.03,WUHU216PEETBRO,2013-09-08 00:08:00,
2013-09-07 18:13:00,76.8,48.1,30.17,SE,143,14.2,16.5,37,0.00,,,0.03,WUHU216PEETBRO,2013-09-08 00:13:00,
2013-09-07 18:18:00,76.1,48.6,30.17,SE,135,13.7,22.1,38,0.00,,,0.03,WUHU216PEETBRO,2013-09-08 00:18:00,
2013-09-07 18:23:00,75.7,48.0,30.17,ESE,110,19.4,22.1,38,0.00,,,0.03,WUHU216PEETBRO,2013-09-08 00:23:00,
2013-09-07 18:28:00,75.2,47.9,30.17,SE,135,14.0,21.4,38,0.00,,,0.03,WUHU216PEETBRO,2013-09-08 00:28:00,
2013-09-07 18:33:00,75.2,48.4,30.17,SSE,152,11.2,23.5,39,0.00,,,0.03,WUHU216PEETBRO,2013-09-08 00:33:00,
2013-09-07 18:38:00,74.8,48.9,30.17,SSE,166,10.1,23.5,40,0.00,,,0.03,WUHU216PEETBRO,2013-09-08 00:38:00,
2013-09-07 18:43:00,74.5,47.5,30.17,SE,137,15.1,21.4,39,0.00,,,0.03,WUHU216PEETBRO,2013-09-08 00:43:00,
2013-09-07 18:48:00,74.1,47.6,30.17,SE,140,14.3,29.9,39,0.00,,,0.03,WUHU216PEETBRO,2013-09-08 00:48:00,
2013-09-07 18:53:00,74.1,47.4,30.16,SE,138,15.6,29.9,39,0.00,,,0.03,WUHU216PEETBRO,2013-09-08 00:53:00,
2013-09-07 18:58:00,73.7,49.2,30.17,SSE,160,10.0,25.0,42,0.00,,,0.03,WUHU216PEETBRO,2013-09-08 00:58:00,
2013-09-07 19:03:00,72.8,49.4,30.17,SE,142,15.2,22.2,44,0.00,,,0.03,WUHU216PEETBRO,2013-09-08 01:03:00,
2013-09-07 19:08:00,72.5,49.4,30.17,SE,141,10.4,22.2,44,0.00,,,0.03,WUHU216PEETBRO,2013-09-08 01:08:00,
2013-09-07 19:13:00,72.4,49.8,30.17,SSE,168,8.0,15.6,45,0.00,,,0.03,WUHU216PEETBRO,2013-09-08 01:13:00,
2013-09-07 19:18:00,71.8,49.4,30.17,SSE,161,9.7,15.6,45,0.00,,,0.03,WUHU216PEETBRO,2013-09-08 01:18:00,
2013-09-07 19:23:00,71.5,49.7,30.17,SSE,158,11.2,14.4,46,0.00,,,0.03,WUHU216PEETBRO,2013-09-08 01:23:00,
2013-09-07 19:28:00,71.6,48.4,30.16,SE,145,9.9,17.5,44,0.00,,,0.03,WUHU216PEETBRO,2013-09-08 01:28:00,
2013-09-07 19:33:00,71.4,48.0,30.17,SSE,160,13.5,17.5,44,0.00,,,0.03,WUHU216PEETBRO,2013-09-08 01:33:00,
2013-09-07 19:38:00,71.0,47.6,30.16,SE,146,9.4,17.0,44,0.00,,,0.03,WUHU216PEETBRO,2013-09-08 01:38:00,
2013-09-07 19:43:00,70.8,46.8,30.16,East,101,14.4,17.5,43,0.00,,,0.03,WUHU216PEETBRO,2013-09-08 01:43:00,
2013-09-07 19:48:00,70.6,47.1,30.17,SSE,155,9.6,17.5,43,0.00,,,0.03,WUHU216PEETBRO,2013-09-08 01:48:00,
2013-09-07 19:53:00,70.3,47.1,30.16,SE,145,8.7,15.0,44,0.00,,,0.03,WUHU216PEETBRO,2013-09-08 01:53:00,
2013-09-07 19:58:00,70.0,46.9,30.16,SE,143,7.8,16.9,44,0.00,,,0.03,WUHU216PEETBRO,2013-09-08 01:58:00,
2013-09-07 19:59:00,69.6,46.5,30.16,South,170,8.2,16.4,44,0.00,,,0.03,WUHU216PEETBRO,2013-09-08 01:59:00,
2013-09-07 20:00:00,69.5,46.6,30.17,SSE,168,8.2,16.4,44,0.00,,,0.03,WUHU216PEETBRO,2013-09-08 02:00:00,
2013-09-07 20:01:00,69.5,46.4,30.17,South,170,12.5,16.4,44,0.00,,,0.03,WUHU216PEETBRO,2013-09-08 02:01:00,
2013-09-07 20:02:00,69.7,46.5,30.17,SSE,167,9.1,16.4,44,0.00,,,0.03,WUHU216PEETBRO,2013-09-08 02:02:00,
2013-09-07 20:03:00,69.8,46.8,30.17,SSE,159,7.5,16.9,44,0.00,,,0.03,WUHU216PEETBRO,2013-09-08 02:03:00,
2013-09-07 20:08:00,69.7,46.2,30.17,SSE,148,10.0,16.1,43,0.00,,,0.03,WUHU216PEETBRO,2013-09-08 02:08:00,
2013-09-07 20:13:00,69.6,46.2,30.17,SSE,159,12.1,16.4,43,0.00,,,0.03,WUHU216PEETBRO,2013-09-08 02:13:00,
2013-09-07 20:18:00,69.6,46.0,30.17,South,176,10.7,18.3,43,0.00,,,0.03,WUHU216PEETBRO,2013-09-08 02:18:00,
2013-09-07 20:23:00,69.6,46.7,30.17,SSE,162,9.7,18.3,44,0.00,,,0.03,WUHU216PEETBRO,2013-09-08 02:23:00,
2013-09-07 20:28:00,69.4,47.2,30.17,SSE,157,9.8,21.9,45,0.00,,,0.03,WUHU216PEETBRO,2013-09-08 02:28:00,
2013-09-07 20:33:00,68.9,47.8,30.17,SSE,156,11.8,21.9,47,0.00,,,0.03,WUHU216PEETBRO,2013-09-08 02:33:00,
2013-09-07 20:38:00,68.4,48.7,30.17,SSE,162,8.1,19.1,49,0.00,,,0.03,WUHU216PEETBRO,2013-09-08 02:38:00,
2013-09-07 20:43:00,68.4,49.4,30.18,SSE,165,16.8,17.9,51,0.00,,,0.03,WUHU216PEETBRO,2013-09-08 02:43:00,
2013-09-07 20:48:00,68.4,49.5,30.18,South,169,12.7,18.0,51,0.00,,,0.03,WUHU216PEETBRO,2013-09-08 02:48:00,
2013-09-07 20:53:00,68.7,49.5,30.18,South,172,18.5,19.9,50,0.00,,,0.03,WUHU216PEETBRO,2013-09-08 02:53:00,
2013-09-07 20:58:00,68.7,49.2,30.18,South,173,11.4,20.2,50,0.00,,,0.03,WUHU216PEETBRO,2013-09-08 02:58:00,
2013-09-07 21:03:00,68.7,49.0,30.17,SSE,165,20.4,21.4,49,0.00,,,0.03,WUHU216PEETBRO,2013-09-08 03:03:00,
2013-09-07 21:08:00,68.5,48.9,30.17,SSW,206,14.2,21.4,50,0.00,,,0.03,WUHU216PEETBRO,2013-09-08 03:08:00,
2013-09-07 21:13:00,68.5,48.6,30.17,South,177,12.7,27.7,49,0.00,,,0.03,WUHU216PEETBRO,2013-09-08 03:13:00,
2013-09-07 21:18:00,68.5,48.6,30.17,SSE,159,17.4,27.7,49,0.00,,,0.03,WUHU216PEETBRO,2013-09-08 03:18:00,
2013-09-07 21:23:00,68.5,48.4,30.17,SSE,161,15.4,27.0,49,0.00,,,0.03,WUHU216PEETBRO,2013-09-08 03:23:00,
2013-09-07 21:28:00,68.3,48.6,30.16,SSE,153,13.9,27.0,49,0.00,,,0.03,WUHU216PEETBRO,2013-09-08 03:28:00,
2013-09-07 21:33:00,68.1,48.6,30.17,South,173,16.0,23.4,50,0.00,,,0.03,WUHU216PEETBRO,2013-09-08 03:33:00,
2013-09-07 21:38:00,67.9,48.8,30.16,SSE,151,12.7,23.4,50,0.00,,,0.03,WUHU216PEETBRO,2013-09-08 03:38:00,
2013-09-07 21:43:00,68.0,49.0,30.17,SSE,165,10.5,22.8,51,0.00,,,0.03,WUHU216PEETBRO,2013-09-08 03:43:00,
2013-09-07 21:48:00,67.9,49.1,30.17,SE,141,12.1,21.4,51,0.00,,,0.03,WUHU216PEETBRO,2013-09-08 03:48:00,
2013-09-07 21:49:00,67.7,49.1,30.17,SSE,148,12.5,24.4,51,0.00,,,0.03,WUHU216PEETBRO,2013-09-08 03:49:00,
2013-09-07 21:50:00,67.7,49.0,30.17,SSE,160,23.9,24.4,51,0.00,,,0.03,WUHU216PEETBRO,2013-09-08 03:50:00,
2013-09-07 21:51:00,67.7,48.4,30.17,SSE,155,14.5,24.4,50,0.00,,,0.03,WUHU216PEETBRO,2013-09-08 03:51:00,
2013-09-07 21:52:00,67.7,49.2,30.17,South,173,18.3,24.4,52,0.00,,,0.03,WUHU216PEETBRO,2013-09-08 03:52:00,
2013-09-07 21:53:00,67.7,49.0,30.17,SE,142,10.7,21.7,51,0.00,,,0.03,WUHU216PEETBRO,2013-09-08 03:53:00,
2013-09-07 21:54:00,67.5,48.8,30.17,SSE,162,14.0,24.6,51,0.00,,,0.03,WUHU216PEETBRO,2013-09-08 03:54:00,
2013-09-07 21:55:00,67.5,49.0,30.16,South,190,22.4,24.6,51,0.00,,,0.03,WUHU216PEETBRO,2013-09-08 03:55:00,
2013-09-07 21:56:00,67.5,49.0,30.17,SSE,162,14.7,24.6,51,0.00,,,0.03,WUHU216PEETBRO,2013-09-08 03:56:00,
2013-09-07 21:57:00,67.4,48.9,30.17,SSE,162,14.1,24.6,51,0.00,,,0.03,WUHU216PEETBRO,2013-09-08 03:57:00,
2013-09-07 21:58:00,67.7,48.8,30.16,SSE,158,15.0,24.4,51,0.00,,,0.03,WUHU216PEETBRO,2013-09-08 03:58:00,
2013-09-07 21:59:00,67.3,49.0,30.17,SSE,160,10.9,24.6,52,0.00,,,0.03,WUHU216PEETBRO,2013-09-08 03:59:00,
2013-09-07 22:00:00,67.2,48.9,30.17,SSE,159,11.6,25.4,52,0.00,,,0.03,WUHU216PEETBRO,2013-09-08 04:00:00,
2013-09-07 22:04:00,67.5,48.8,30.16,SSE,157,13.9,24.6,51,0.00,,,0.03,WUHU216PEETBRO,2013-09-08 04:04:00,
2013-09-07 22:09:00,67.4,49.0,30.17,South,173,13.7,24.6,52,0.00,,,0.03,WUHU216PEETBRO,2013-09-08 04:09:00,
2013-09-07 22:14:00,67.5,49.2,30.17,SSW,200,15.4,27.3,52,0.00,,,0.03,WUHU216PEETBRO,2013-09-08 04:14:00,
2013-09-07 22:19:00,67.4,50.1,30.17,SSE,158,17.4,32.6,54,0.00,,,0.03,WUHU216PEETBRO,2013-09-08 04:19:00,
2013-09-07 22:24:00,67.5,50.7,30.17,SSE,168,17.2,32.6,55,0.00,,,0.03,WUHU216PEETBRO,2013-09-08 04:24:00,
2013-09-07 22:29:00,67.4,51.1,30.17,South,172,18.5,30.5,56,0.00,,,0.03,WUHU216PEETBRO,2013-09-08 04:29:00,
2013-09-07 22:34:00,67.1,51.3,30.17,SSE,163,18.8,30.5,57,0.00,,,0.03,WUHU216PEETBRO,2013-09-08 04:34:00,
2013-09-07 22:39:00,66.7,51.4,30.17,South,170,17.8,33.9,58,0.00,,,0.03,WUHU216PEETBRO,2013-09-08 04:39:00,
2013-09-07 22:44:00,66.4,51.1,30.17,South,183,26.3,33.9,58,0.00,,,0.03,WUHU216PEETBRO,2013-09-08 04:44:00,
2013-09-07 22:49:00,66.4,50.7,30.18,South,180,16.3,34.1,57,0.00,,,0.03,WUHU216PEETBRO,2013-09-08 04:49:00,
2013-09-07 22:54:00,66.4,49.9,30.23,WSW,250,12.4,34.1,55,0.00,,,0.03,WUHU216PEETBRO,2013-09-08 04:54:00,
2013-09-07 22:59:00,67.5,49.1,30.22,West,263,8.7,24.7,52,0.00,,,0.03,WUHU216PEETBRO,2013-09-08 04:59:00,
2013-09-07 23:04:00,68.1,49.1,30.23,West,273,8.3,22.0,51,0.00,,,0.03,WUHU216PEETBRO,2013-09-08 05:04:00,
2013-09-07 23:09:00,68.2,49.1,30.23,SSW,208,5.8,19.1,50,0.00,,,0.03,WUHU216PEETBRO,2013-09-08 05:09:00,
2013-09-07 23:14:00,68.1,48.8,30.24,SSW,202,3.5,19.1,50,0.00,,,0.03,WUHU216PEETBRO,2013-09-08 05:14:00,
2013-09-07 23:19:00,68.0,48.3,30.24,South,173,0.0,13.9,49,0.00,,,0.03,WUHU216PEETBRO,2013-09-08 05:19:00,
2013-09-07 23:24:00,67.7,48.6,30.22,SE,146,5.7,7.0,50,0.00,,,0.03,WUHU216PEETBRO,2013-09-08 05:24:00,
2013-09-07 23:29:00,67.1,48.7,30.22,WSW,238,0.8,7.0,52,0.00,,,0.03,WUHU216PEETBRO,2013-09-08 05:29:00,
2013-09-07 23:34:00,66.9,48.3,30.21,SW,231,0.0,5.2,51,0.00,,,0.03,WUHU216PEETBRO,2013-09-08 05:34:00,
2013-09-07 23:39:00,66.7,48.4,30.21,WNW,292,0.1,5.2,52,0.00,,,0.03,WUHU216PEETBRO,2013-09-08 05:39:00,
2013-09-07 23:44:00,66.3,48.2,30.21,SW,228,0.2,5.9,52,0.00,,,0.03,WUHU216PEETBRO,2013-09-08 05:44:00,
2013-09-07 23:49:00,65.9,47.8,30.21,SW,220,0.0,5.9,52,0.00,,,0.03,WUHU216PEETBRO,2013-09-08 05:49:00,
2013-09-07 23:54:00,65.3,48.1,30.21,SW,220,0.0,3.4,54,0.00,,,0.03,WUHU216PEETBRO,2013-09-08 05:54:00,
2013-09-07 23:59:00,64.9,47.7,30.21,SW,220,0.0,0.0,54,0.00,,,0.03,WUHU216PEETBRO,2013-09-08 05:59:00,